Location: Debolt
(55.2626°N, 118.0981°W)
Time: 23:25:11
(UTC+00:00)

Oscar 11 - Visible Passes

Search period start: 16 May 2025 00:00
Search period end: 26 May 2025 00:00
Orbit: 593 x 606 km, 97.8° (Epoch: 16 May)

Date Brightness Start Highest point End Pass type
(mag) Time Alt. Az. Time Alt. Az. Time Alt. Az.
16 May 9.6 10:27:45 10° NE 10:30:42 18° E 10:33:38 10° SE visible
17 May 9.3 10:38:34 10° NE 10:41:55 22° E 10:45:15 10° SE visible
22 May 10.1 10:00:36 10° ENE 10:01:09 10° E 10:01:44 10° E visible
23 May 9.8 10:10:26 10° ENE 10:12:25 13° E 10:14:23 10° ESE visible
24 May 9.6 10:21:00 10° NE 10:23:39 16° E 10:26:18 10° SE visible
25 May 9.5 10:31:44 10° NE 10:34:51 20° E 10:37:59 10° SE visible
